Location: Hylvaty SDH
(49.9612°N, 16.4057°E)
Time: 20:38:35
(UTC+01:00)

Vanguard 1 Rocket - Pass Details

Date: 04 October 2020
Orbit: 656 x 4221 km, 34.3° (Epoch: 30 October)

Event Time Altitude Azimuth Distance (km) Brightness Sun altitude
Rises 16:00:32 0° 201° (SSW) 4,122 11.7 20.8°
Reaches altitude 10° 16:03:42 10° 185° (S) 3,559 11.1 20.4°
Maximum altitude 16:10:29 22° 139° (SE) 3,552 10.5 19.5°
Drops below altitude 10° 16:20:43 10° 97° (E) 5,623 11.0 18.1°
Sets 16:27:43 0° 86° (E) 7,315 11.5 17.1°
